User: anonymous   Login
Location: Unspecified
(0.0000°N, 0.0000°E)
Time: 03:48:47
(UTC+00:00)
Language:

DSAT - Orbit

View from above orbital plane
View from above orbital plane
View from above satellite
View from above satellite

Ground track
Ground track

The orbit data is extracted from the following two-line orbital elements,

1 42794U 17036AF  24206.39907949  .00012581  00000-0  86271-3 0  9991
2 42794  97.4821 186.9397 0108301  23.8197 336.7986 15.01423263386304
Epoch (UTC): 24 July 2024 09:34:40
Eccentricity: 0.0108301
inclination: 97.4821°
perigee height: 487 km
apogee height: 637 km
right ascension of ascending node: 186.9397°
argument of perigee: 23.8197°
revolutions per day: 15.01423263
mean anomaly at epoch: 336.7986°
orbit number at epoch: 38630

The dashed part of the orbit path shows where the satellite is in the earth's shadow,  

DLR